| time (UTC) | temp F | wind direction | speed knots | gust knots | rain 1hr in | rain 24hr in | rain mn in | humidity % | barometer mb |
| 20260507065537 | 52 | 350 | 5.2 | 7.0 | 0.00 | 0.00 | 0.00 | 50 | 1015.6 |
| 20260507063336 | 51 | 272 | 4.3 | 6.1 | 0.00 | 0.00 | 0.00 | 53 | 1015.7 |
| 20260507061136 | 50 | 273 | 4.3 | 6.1 | 0.00 | 0.00 | 0.00 | 53 | 1015.5 |
| 20260507060035 | 50 | 232 | 4.3 | 7.0 | 0.00 | 0.00 | 0.00 | 53 | 1015.3 |
| 20260507054935 | 49 | 213 | 3.5 | 3.5 | 0.00 | 0.00 | 0.00 | 56 | 1015.2 |
| 20260507052735 | 47 | 212 | 2.6 | 4.3 | 0.00 | 0.00 | 0.00 | 61 | 1015.0 |
| 20260507050535 | 44 | 138 | 1.7 | 2.6 | 0.00 | 0.00 | 0.00 | 82 | 1015.0 |
| 20260507045435 | 41 | 146 | 0.9 | 1.7 | 0.00 | 0.00 | 0.00 | 83 | 1014.9 |
| 20260507044335 | 37 | 144 | 0.9 | 1.7 | 0.00 | 0.00 | 0.00 | 82 | 1014.9 |
| 20260507043235 | 36 | 135 | 0.0 | 1.7 | 0.00 | 0.00 | 0.00 | 81 | 1014.9 |
| 20260507042135 | 35 | 0 | 0.0 | 0.0 | 0.00 | 0.00 | 0.00 | 81 | 1014.7 |
| 20260507041035 | 34 | 0 | 0.0 | 0.0 | 0.00 | 0.00 | 0.00 | 81 | 1014.6 |
| 20260507035935 | 34 | 0 | 0.0 | 0.0 | 0.00 | 0.00 | 0.00 | 80 | 1014.8 |
| 20260507034835 | 34 | 0 | 0.0 | 0.0 | 0.00 | 0.00 | 0.00 | 80 | 1014.5 |
| 20260507033735 | 34 | 0 | 0.0 | 0.0 | 0.00 | 0.00 | 0.00 | 80 | 1014.4 |
| 20260507031535 | 34 | 135 | 0.0 | 1.7 | 0.00 | 0.00 | 0.00 | 78 | 1014.5 |
| 20260507030436 | 34 | 0 | 0.0 | 0.0 | 0.00 | 0.00 | 0.00 | 77 | 1014.3 |
| 20260507025335 | 34 | 0 | 0.0 | 0.0 | 0.00 | 0.00 | 0.00 | 77 | 1014.2 |
| 20260507024234 | 34 | 0 | 0.0 | 0.0 | 0.00 | 0.00 | 0.00 | 76 | 1014.1 |
| 20260507023135 | 35 | 0 | 0.0 | 0.0 | 0.00 | 0.00 | 0.00 | 75 | 1014.1 |
| 20260507022034 | 35 | 135 | 0.0 | 0.9 | 0.00 | 0.00 | 0.00 | 75 | 1014.0 |
| 20260507020935 | 35 | 0 | 0.0 | 0.0 | 0.00 | 0.00 | 0.00 | 74 | 1014.1 |
| 20260507015834 | 36 | 0 | 0.0 | 0.0 | 0.00 | 0.00 | 0.00 | 74 | 1014.1 |
| 20260507014734 | 36 | 135 | 0.9 | 2.6 | 0.00 | 0.00 | 0.00 | 73 | 1014.1 |
| 20260507013634 | 36 | 135 | 0.9 | 1.7 | 0.00 | 0.00 | 0.00 | 72 | 1014.0 |
| 20260507012534 | 37 | 0 | 0.0 | 0.0 | 0.00 | 0.00 | 0.00 | 71 | 1013.9 |
| 20260507011435 | 37 | 0 | 0.0 | 0.0 | 0.00 | 0.00 | 0.00 | 71 | 1014.0 |
| 20260507010334 | 38 | 0 | 0.0 | 0.0 | 0.00 | 0.00 | 0.00 | 70 | 1014.0 |
| 20260507005234 | 38 | 0 | 0.0 | 0.0 | 0.00 | 0.00 | 0.00 | 69 | 1013.8 |
| 20260507004134 | 38 | 0 | 0.0 | 0.0 | 0.00 | 0.00 | 0.00 | 68 | 1013.7 |
| 20260507003034 | 39 | 0 | 0.0 | 0.0 | 0.00 | 0.00 | 0.00 | 67 | 1013.8 |
| 20260507001934 | 39 | 181 | 0.0 | 0.9 | 0.00 | 0.00 | 0.00 | 66 | 1013.6 |
| 20260507000835 | 40 | 181 | 0.0 | 1.7 | 0.00 | 0.00 | 0.00 | 65 | 1013.7 |
| 20260506235734 | 40 | 181 | 0.9 | 1.7 | 0.00 | 0.00 | 0.00 | 64 | 1013.8 |
| 20260506234635 | 40 | 181 | 0.0 | 0.9 | 0.00 | 0.00 | 0.00 | 63 | 1013.7 |
| 20260506233533 | 41 | 181 | 0.0 | 1.7 | 0.00 | 0.00 | 0.00 | 62 | 1013.7 |
| 20260506232434 | 42 | 181 | 0.9 | 1.7 | 0.00 | 0.00 | 0.00 | 61 | 1013.8 |
| 20260506230234 | 43 | 124 | 0.9 | 1.7 | 0.00 | 0.00 | 0.00 | 60 | 1013.9 |
| 20260506225133 | 43 | 131 | 1.7 | 2.6 | 0.00 | 0.00 | 0.00 | 60 | 1013.8 |
| 20260506224033 | 44 | 119 | 0.9 | 3.5 | 0.00 | 0.00 | 0.00 | 60 | 1013.6 |
| 20260506222933 | 44 | 165 | 0.9 | 2.6 | 0.00 | 0.00 | 0.00 | 59 | 1013.8 |
| 20260506221834 | 44 | 164 | 1.7 | 2.6 | 0.00 | 0.00 | 0.00 | 58 | 1013.6 |
| 20260506213433 | 45 | 167 | 0.9 | 1.7 | 0.00 | 0.00 | 0.00 | 60 | 1013.4 |
| 20260506211233 | 46 | 135 | 0.9 | 1.7 | 0.00 | 0.00 | 0.00 | 54 | 1013.2 |
| 20260506210135 | 46 | 98 | 0.9 | 2.6 | 0.00 | 0.00 | 0.00 | 53 | 1013.1 |
| 20260506203934 | 46 | 128 | 0.9 | 2.6 | 0.00 | 0.00 | 0.00 | 51 | 1013.0 |
| 20260506202833 | 46 | 154 | 1.7 | 2.6 | 0.00 | 0.00 | 0.00 | 50 | 1013.0 |
| 20260506201733 | 47 | 181 | 0.0 | 1.7 | 0.00 | 0.00 | 0.00 | 50 | 1013.0 |
| 20260506200633 | 47 | 181 | 0.0 | 1.7 | 0.00 | 0.00 | 0.00 | 49 | 1013.0 |
| 20260506193334 | 48 | 125 | 0.9 | 1.7 | 0.00 | 0.00 | 0.00 | 43 | 1012.9 |
| 20260506191133 | 49 | 139 | 2.6 | 3.5 | 0.00 | 0.00 | 0.00 | 41 | 1012.5 |
| 20260506190033 | 50 | 142 | 1.7 | 3.5 | 0.00 | 0.00 | 0.00 | 42 | 1012.4 |
| 20260506184934 | 50 | 149 | 2.6 | 4.3 | 0.00 | 0.00 | 0.00 | 41 | 1012.3 |
| 20260506183832 | 51 | 132 | 2.6 | 3.5 | 0.00 | 0.00 | 0.00 | 41 | 1012.2 |
| 20260506182733 | 51 | 152 | 2.6 | 3.5 | 0.00 | 0.00 | 0.00 | 41 | 1012.1 |
| 20260506181632 | 52 | 151 | 2.6 | 3.5 | 0.00 | 0.00 | 0.00 | 41 | 1011.9 |
| 20260506175432 | 52 | 127 | 1.7 | 2.6 | 0.00 | 0.00 | 0.00 | 42 | 1011.9 |
| 20260506174333 | 53 | 162 | 1.7 | 5.2 | 0.00 | 0.00 | 0.00 | 41 | 1011.8 |
| 20260506173232 | 53 | 135 | 3.5 | 5.2 | 0.00 | 0.00 | 0.00 | 40 | 1011.7 |
| 20260506172132 | 53 | 141 | 1.7 | 2.6 | 0.00 | 0.00 | 0.00 | 40 | 1011.8 |
| 20260506165932 | 54 | 135 | 2.6 | 4.3 | 0.00 | 0.00 | 0.00 | 40 | 1011.7 |
| 20260506163731 | 54 | 140 | 4.3 | 6.1 | 0.00 | 0.00 | 0.00 | 39 | 1011.6 |
| 20260506162632 | 55 | 111 | 2.6 | 5.2 | 0.00 | 0.00 | 0.00 | 36 | 1011.6 |
| 20260506161531 | 55 | 152 | 3.5 | 7.0 | 0.00 | 0.00 | 0.00 | 37 | 1011.6 |
| 20260506154233 | 56 | 151 | 4.3 | 6.1 | 0.00 | 0.00 | 0.00 | 36 | 1011.5 |
| 20260506153132 | 56 | 125 | 3.5 | 6.1 | 0.00 | 0.00 | 0.00 | 34 | 1011.5 |
| 20260506152031 | 56 | 106 | 4.3 | 6.1 | 0.00 | 0.00 | 0.00 | 34 | 1011.6 |
| 20260506150931 | 56 | 122 | 4.3 | 6.1 | 0.00 | 0.00 | 0.00 | 34 | 1011.5 |
| 20260506144731 | 56 | 147 | 4.3 | 7.0 | 0.00 | 0.00 | 0.00 | 37 | 1011.5 |
| 20260506143632 | 56 | 149 | 4.3 | 6.1 | 0.00 | 0.00 | 0.00 | 38 | 1011.5 |
| 20260506142531 | 56 | 117 | 4.3 | 8.7 | 0.00 | 0.00 | 0.00 | 37 | 1011.5 |
| 20260506141431 | 56 | 146 | 5.2 | 7.8 | 0.00 | 0.00 | 0.00 | 37 | 1011.6 |
| 20260506134131 | 58 | 151 | 4.3 | 6.1 | 0.00 | 0.00 | 0.00 | 35 | 1011.5 |
| 20260506133031 | 59 | 140 | 4.3 | 7.0 | 0.00 | 0.00 | 0.00 | 33 | 1011.4 |
| 20260506131930 | 59 | 158 | 3.5 | 5.2 | 0.00 | 0.00 | 0.00 | 33 | 1011.5 |
| 20260506130830 | 59 | 158 | 3.5 | 7.8 | 0.00 | 0.00 | 0.00 | 34 | 1011.4 |
| 20260506125730 | 58 | 123 | 5.2 | 7.0 | 0.00 | 0.00 | 0.00 | 34 | 1011.5 |
| 20260506124630 | 59 | 143 | 5.2 | 7.0 | 0.00 | 0.00 | 0.00 | 34 | 1011.4 |
| 20260506123530 | 59 | 112 | 5.2 | 8.7 | 0.00 | 0.00 | 0.00 | 33 | 1011.5 |
| 20260506122430 | 58 | 155 | 5.2 | 7.0 | 0.00 | 0.00 | 0.00 | 35 | 1011.5 |
| 20260506121330 | 58 | 143 | 4.3 | 7.0 | 0.00 | 0.00 | 0.00 | 35 | 1011.5 |
| 20260506120230 | 58 | 136 | 3.5 | 7.0 | 0.00 | 0.00 | 0.00 | 36 | 1011.6 |
| 20260506115131 | 57 | 112 | 5.2 | 8.7 | 0.00 | 0.00 | 0.00 | 36 | 1011.7 |
| 20260506114030 | 57 | 80 | 6.1 | 12.2 | 0.00 | 0.00 | 0.00 | 34 | 1011.6 |
| 20260506112931 | 57 | 77 | 4.3 | 7.0 | 0.00 | 0.00 | 0.00 | 34 | 1011.7 |
| 20260506111831 | 57 | 139 | 5.2 | 8.7 | 0.00 | 0.00 | 0.00 | 35 | 1011.8 |
| 20260506110730 | 57 | 43 | 5.2 | 7.8 | 0.00 | 0.00 | 0.00 | 34 | 1011.7 |
| 20260506104529 | 56 | 119 | 6.1 | 9.6 | 0.00 | 0.00 | 0.00 | 35 | 1011.9 |
| 20260506102329 | 56 | 80 | 7.8 | 12.2 | 0.00 | 0.00 | 0.00 | 33 | 1011.9 |
| 20260506101229 | 56 | 138 | 6.1 | 12.2 | 0.00 | 0.00 | 0.00 | 34 | 1011.9 |
| 20260506100129 | 56 | 155 | 6.1 | 8.7 | 0.00 | 0.00 | 0.00 | 35 | 1011.9 |
| 20260506095029 | 56 | 157 | 6.1 | 8.7 | 0.00 | 0.00 | 0.00 | 35 | 1012.1 |
| 20260506093929 | 55 | 92 | 7.8 | 11.3 | 0.00 | 0.00 | 0.00 | 35 | 1012.1 |
| 20260506092829 | 55 | 128 | 7.8 | 11.3 | 0.00 | 0.00 | 0.00 | 34 | 1012.1 |
| 20260506091729 | 54 | 76 | 7.0 | 14.8 | 0.00 | 0.00 | 0.00 | 34 | 1012.2 |
| 20260506090629 | 54 | 55 | 7.0 | 9.6 | 0.00 | 0.00 | 0.00 | 37 | 1012.2 |
| 20260506085530 | 54 | 84 | 8.7 | 13.0 | 0.00 | 0.00 | 0.00 | 35 | 1012.3 |
| 20260506084429 | 54 | 117 | 6.1 | 8.7 | 0.00 | 0.00 | 0.00 | 35 | 1012.2 |
| 20260506082230 | 53 | 114 | 7.8 | 10.4 | 0.00 | 0.00 | 0.00 | 34 | 1012.4 |
| 20260506081129 | 53 | 129 | 9.6 | 9.6 | 0.00 | 0.00 | 0.00 | 33 | 1012.3 |
| 20260506072728 | 54 | 88 | 11.3 | 14.8 | 0.00 | 0.00 | 0.00 | 30 | 1012.6 |
| 20260506071630 | 53 | 59 | 10.4 | 17.4 | 0.00 | 0.00 | 0.00 | 30 | 1012.6 |